Friday Harbor, WA

11:56 AM PDT on May 20, 2018 (GMT -0700)
Friday Harbor

Weather History for KFHR - July, 2014

Change the Weather History Date:

Tuesday, July 29, 2014

  Actual Average Record
Temperature  
Mean Temperature 62 °F -  
Max Temperature 78 °F 70 °F 86 °F (2003)
Min Temperature 48 °F 48 °F 46 °F (1999)
Degree Days  
Heating Degree Days 2    
Growing Degree Days 12 (Base 50)    
Moisture  
Dew Point 52 °F    
Average Humidity 75    
Maximum Humidity 97    
Minimum Humidity 45    
Precipitation  
Precipitation 0.00 in - - ()
Sea Level Pressure  
Sea Level Pressure 30.10 in    
Wind  
Wind Speed 1 mph (SE)    
Max Wind Speed 9 mph    
Max Gust Speed -    
Visibility 10 miles    
Events      
Averages and records for this station are not official NWS values.
T = Trace of Precipitation, MM = Missing Value Source: NWS Daily Summary

Daily Weather History Graph

Daily Weather History Graph

Search for Another Location

Airport or City:

Astronomy

Jul. 29, 2014 Rise Set
Actual Time 5:42 AM PDT 8:53 PM PDT
Civil Twilight 5:05 AM PDT 9:30 PM PDT
Nautical Twilight 4:16 AM PDT 10:19 PM PDT
Astronomical Twilight 3:14 AM PDT 11:20 PM PDT
Moon 8:42 AM PDT (7/29) 9:48 PM PDT (7/29)
Length of Visible Light 16h 25m
Length of Day
15h 10m
Waxing Crescent, 7% of the Moon is Illuminated
Jul 29
Waxing Crescent
Aug 3
First Quarter
Aug 10
Full
Aug 17
Last Quarter
Aug 25
New

Hourly Weather History & Observations

Time (PDT) Temp. Dew Point Humidity Pressure Visibility Wind Dir Wind Speed Gust Speed Precip Events Conditions
12:53 AM 51.1 °F 48.9 °F 92% 30.09 in 10.0 mi Calm Calm - N/A   Clear
1:53 AM 51.1 °F 48.9 °F 92% 30.09 in 10.0 mi Calm Calm - N/A   Clear
2:53 AM 48.9 °F 48.0 °F 97% 30.09 in 10.0 mi Calm Calm - N/A   Clear
3:53 AM 48.9 °F 48.0 °F 97% 30.10 in 10.0 mi Calm Calm - N/A   Clear
4:53 AM 50.0 °F 48.0 °F 93% 30.11 in 10.0 mi Calm Calm - N/A   Clear
5:53 AM 48.9 °F 48.0 °F 97% 30.12 in 10.0 mi Calm Calm - N/A   Clear
7:53 AM 59.0 °F 53.1 °F 81% 30.14 in 10.0 mi Calm Calm - N/A   Clear
8:53 AM 60.1 °F 53.1 °F 78% 30.15 in 10.0 mi SE 3.5 mph - N/A   Clear
9:53 AM 63.0 °F 53.1 °F 70% 30.15 in 10.0 mi ESE 4.6 mph - N/A   Clear
10:53 AM 64.9 °F 53.1 °F 65% 30.16 in 10.0 mi ESE 4.6 mph - N/A   Clear
11:53 AM 66.9 °F 54.0 °F 63% 30.15 in 10.0 mi ESE 4.6 mph - N/A   Clear
12:53 PM 68.0 °F 54.0 °F 61% 30.14 in 10.0 mi ESE 5.8 mph - N/A   Clear
1:53 PM 70.0 °F 54.0 °F 57% 30.14 in 10.0 mi ESE 3.5 mph - N/A   Clear
3:53 PM 77.0 °F 54.0 °F 45% 30.10 in 10.0 mi South 9.2 mph - N/A   Clear
4:53 PM 72.0 °F 54.0 °F 53% 30.09 in 10.0 mi ESE 4.6 mph - N/A   Clear
5:53 PM 68.0 °F 53.1 °F 59% 30.07 in 10.0 mi Calm Calm - N/A   Clear
6:53 PM 68.0 °F 53.1 °F 59% 30.06 in 10.0 mi Calm Calm - N/A   Clear
7:53 PM 66.9 °F 53.1 °F 61% 30.05 in 10.0 mi WSW 3.5 mph - N/A   Clear
8:53 PM 60.1 °F 53.1 °F 78% 30.06 in 10.0 mi Calm Calm - N/A   Clear
9:53 PM 57.0 °F 52.0 °F 83% 30.06 in 10.0 mi Calm Calm - N/A   Clear
10:53 PM 55.0 °F 52.0 °F 89% 30.07 in 10.0 mi Calm Calm - N/A   Clear
11:53 PM 53.1 °F 50.0 °F 89% 30.08 in 10.0 mi Calm Calm - N/A   Clear